Weather History for Kansas City, MO

Change the Weather History Date:

Thursday, March 21, 2013

  Actual Average Record
Temperature  
Mean Temperature 28 °F -  
Max Temperature 30 °F 55 °F 82 °F (2011)
Min Temperature 26 °F 35 °F 18 °F (2002)
Degree Days  
Heating Degree Days 37    
Moisture  
Dew Point 17 °F    
Average Humidity 65    
Maximum Humidity 81    
Minimum Humidity 40    
Precipitation  
Precipitation 0.03 in - - ()
Sea Level Pressure  
Sea Level Pressure 30.02 in    
Wind  
Wind Speed 7 mph (East)    
Max Wind Speed 13 mph    
Max Gust Speed 17 mph    
Visibility 7 miles    
Events Snow    
Averages and records for this station are not official NWS values.
T = Trace of Precipitation, MM = Missing Value Source: NWS Daily Summary

Daily Weather History Graph

Daily Weather History Graph

Search for Another Location

Airport:

Trip Planner

Search our weather history database for the weather conditions in past years. The results will help you decide how hot, cold, wet, or windy it might be!

Date:

Astronomy

Mar. 21, 2013 Rise Set
Actual Time 7:19 AM CDT 7:31 PM CDT
Civil Twilight 6:53 AM CDT 7:58 PM CDT
Nautical Twilight 6:21 AM CDT 8:29 PM CDT
Astronomical Twilight 5:50 AM CDT 9:01 PM CDT
Moon 2:04 PM CDT (3/21) 3:40 AM CDT (3/21)
Length of Visible Light 13h 05m
Length of Day
12h 11m
Waxing Gibbous, 69% of the Moon is Illuminated
Mar 21
Waxing Gibbous
Mar 27
Full
Apr 2
Last Quarter
Apr 10
New
Apr 18
First Quarter

Hourly Weather History & Observations

Time (CDT) Temp. Windchill Dew Point Humidity Pressure Visibility Wind Dir Wind Speed Gust Speed Precip Events Conditions
12:54 AM 30.2 °F - 8.6 °F 40% 30.12 in 10.0 mi Calm Calm - N/A   Clear
1:54 AM 28.0 °F 22.8 °F 9.0 °F 45% 30.13 in 10.0 mi East 4.6 mph - N/A   Clear
2:54 AM 26.1 °F 20.5 °F 10.0 °F 51% 30.13 in 10.0 mi ENE 4.6 mph - N/A   Clear
3:54 AM 27.0 °F 18.7 °F 10.0 °F 49% 30.10 in 10.0 mi East 8.1 mph - N/A   Clear
4:54 AM 27.0 °F 18.0 °F 10.0 °F 49% 30.09 in 10.0 mi ENE 9.2 mph - N/A   Clear
5:54 AM 27.0 °F 21.6 °F 9.0 °F 47% 30.08 in 10.0 mi East 4.6 mph - N/A   Mostly Cloudy
6:54 AM 27.0 °F 19.5 °F 10.0 °F 49% 30.09 in 10.0 mi ESE 6.9 mph - N/A   Overcast
7:54 AM 27.0 °F 18.7 °F 10.0 °F 49% 30.10 in 10.0 mi East 8.1 mph - N/A   Overcast
8:54 AM 27.0 °F 18.7 °F 10.0 °F 49% 30.09 in 10.0 mi ESE 8.1 mph - N/A   Overcast
9:54 AM 28.0 °F 18.1 °F 10.9 °F 49% 30.07 in 10.0 mi ESE 11.5 mph - N/A   Overcast
10:54 AM 28.9 °F 21.1 °F 10.9 °F 47% 30.04 in 10.0 mi East 8.1 mph - N/A   Overcast
11:46 AM 28.4 °F 18.0 °F 12.2 °F 51% 30.02 in 7.0 mi East 12.7 mph - 0.00 in Snow Light Snow
11:54 AM 28.0 °F 18.6 °F 15.1 °F 58% 30.05 in 2.5 mi East 10.4 mph - 0.00 in Snow Light Snow
12:08 PM 28.4 °F 20.4 °F 17.6 °F 64% 30.03 in 1.5 mi ESE 8.1 mph - 0.00 in Snow Light Snow
12:22 PM 26.6 °F 17.5 °F 19.4 °F 74% 30.03 in 0.8 mi ESE 9.2 mph - 0.00 in Snow Light Snow
12:54 PM 26.1 °F 18.4 °F 21.0 °F 81% 30.04 in 0.8 mi East 6.9 mph - 0.01 in Snow Light Snow
1:26 PM 26.6 °F 19.1 °F 21.2 °F 80% 29.99 in 0.8 mi East 6.9 mph - 0.01 in Snow Light Snow
1:34 PM 26.6 °F 19.1 °F 21.2 °F 80% 29.99 in 0.8 mi East 6.9 mph - 0.01 in Snow Light Snow
1:37 PM 26.6 °F 17.5 °F 21.2 °F 80% 29.99 in 1.0 mi East 9.2 mph - 0.01 in Snow Light Snow
1:54 PM 27.0 °F 18.0 °F 21.9 °F 81% 30.00 in 1.5 mi East 9.2 mph - 0.02 in Snow Light Snow
1:58 PM 26.6 °F 16.2 °F 21.2 °F 80% 29.97 in 2.0 mi ESE 11.5 mph 17.3 mph 0.00 in Snow Light Snow
2:00 PM 26.6 °F 15.7 °F 21.2 °F 80% 29.97 in 2.5 mi East 12.7 mph 17.3 mph 0.00 in Snow Light Snow
2:02 PM 26.6 °F 15.7 °F 21.2 °F 80% 29.97 in 3.0 mi East 12.7 mph 17.3 mph 0.00 in Snow Light Snow
2:38 PM 28.4 °F 19.7 °F 21.2 °F 74% 29.96 in 10.0 mi ESE 9.2 mph - 0.00 in   Overcast
2:54 PM 28.4 °F 19.1 °F 21.2 °F 74% 29.95 in 10.0 mi ESE 10.4 mph - N/A   Overcast
3:10 PM 28.4 °F 19.1 °F 21.2 °F 74% 29.94 in 10.0 mi ESE 10.4 mph - N/A   Overcast
3:54 PM 28.9 °F 21.1 °F 21.9 °F 75% 29.96 in 10.0 mi SE 8.1 mph - N/A   Overcast
4:54 PM 28.9 °F 19.8 °F 21.0 °F 72% 29.95 in 10.0 mi East 10.4 mph - N/A   Overcast
5:54 PM 30.0 °F 20.5 °F 21.0 °F 69% 29.95 in 10.0 mi ESE 11.5 mph - N/A   Overcast
6:54 PM 30.0 °F 21.7 °F 21.0 °F 69% 29.96 in 10.0 mi East 9.2 mph - N/A   Overcast
7:54 PM 30.0 °F 22.4 °F 21.0 °F 69% 29.97 in 10.0 mi East 8.1 mph - N/A   Overcast
8:54 PM 30.0 °F 23.2 °F 21.0 °F 69% 29.97 in 10.0 mi East 6.9 mph - N/A   Overcast
9:29 PM 30.2 °F 23.4 °F 23.0 °F 75% 29.96 in 10.0 mi East 6.9 mph - N/A   Overcast
9:54 PM 30.9 °F 23.5 °F 23.0 °F 72% 29.98 in 10.0 mi East 8.1 mph - N/A   Overcast
10:54 PM 30.9 °F 24.3 °F 24.1 °F 76% 29.98 in 10.0 mi East 6.9 mph - N/A   Overcast
11:54 PM 30.9 °F 25.2 °F 24.1 °F 76% 29.98 in 10.0 mi ENE 5.8 mph - N/A   Overcast